Regional Weather Roundup
Issued by NWS

Home | Current Version | Previous Version | Text Only | Print | Product List | Glossary Off
Versions: 1 2 3 4 5 6 7 8 9 10 11 12 13 14 15 16 17 18 19 20 21 22 23 24 25 26 27 28 29 30 31 32 33 34 35 36 37 38 39 40 41 42 43 44 45 46 47 48 49 50

000
ASUS45 KBOU 171207
RWRCO

WEATHER ROUNDUP FOR COLORADO
NATIONAL WEATHER SERVICE DENVER/BOULDER CO
600 AM MDT WED SEP 17 2014

NOTE: "FAIR" INDICATES FEW OR NO CLOUDS BELOW 12000 FEET WITH NO
SIGNIFICANT WEATHER AND/OR OBSTRUCTIONS TO VISIBILITY.

COZ001>005-013-030-031-171300-
...NORTHWEST COLORADO...

CITY           SKY/WX    TMP DP  RH WIND       PRES   REMARKS
CRAIG          CLEAR     41  36  82 CALM      30.19S
HAYDEN         CLEAR     46  34  61 SE12      30.21R
MEEKER         CLEAR     45  38  76 E7        30.20S
MOUNT WERNER   NOT AVBL
STEAMBOAT SPGS CLEAR     42  35  76 CALM      30.24S
WALDEN         CLOUDY    43  32  65 CALM      30.31R
$$

COZ006>008-011-171300-
...WEST CENTRAL VALLEYS...

CITY           SKY/WX    TMP DP  RH WIND       PRES   REMARKS
GRAND JUNCTION CLEAR     57  41  55 E3        30.08R
MONTROSE       PTCLDY    54  42  64 S5        30.17S
EAGLE          CLEAR     45  39  81 CALM      30.29R
RIFLE          PTCLDY    50  41  71 CALM      30.17R
DELTA          PTCLDY    58  41  54 NE7       30.13S
NUCLA          PTCLDY    55  41  58 E3        30.20S
$$

COZ017>023-064>068-171300-
...SOUTHWEST COLORADO...

CITY           SKY/WX    TMP DP  RH WIND       PRES   REMARKS
DURANGO        CLOUDY    53  45  74 N5        30.23R
CORTEZ         CLEAR     51  48  89 CALM      30.18R
PAGOSA SPRINGS CLOUDY    48  42  80 CALM      30.30R
TELLURIDE      NOT AVBL
WOLF CREEK PAS MOCLDY    43  36  75 NE10      30.54S
$$

COZ009-010-012-014-032>034-037-058>063-171300-
...CENTRAL COLORADO...

CITY           SKY/WX    TMP DP  RH WIND       PRES   REMARKS
ASPEN          PTCLDY    46  35  65 SW9         N/A
BUENA VISTA    MOCLDY    48  33  55 NW9       30.33R
COPPER MTN     PTCLDY    50  28  43 W8        30.58R
BERTHOUD PASS  FAIR      39  37  93 NW13      30.61S
COTTONWOOD PAS MOCLDY    55  30  38 W7        30.43R
GUNNISON       MOCLDY    41  34  75 CALM      30.35R
KREMMLING      CLEAR     34  30  86 CALM      30.34R
LEADVILLE      PTCLDY    33  28  81 CALM      30.43S
MONARCH PASS   MOCLDY    43  32  65 SW13      30.66S
SALIDA         MOCLDY    52  35  52 NW7       30.37S
SUNLIGHT       CLEAR     55  32  41 CALM      30.50S
WILKERSON PASS NOT AVBL
$$

COZ069>075-171300-
...SAN LUIS VALLEY/SANGRE DE CRISTO MOUNTAINS...

CITY           SKY/WX    TMP DP  RH WIND       PRES   REMARKS
ALAMOSA        MOCLDY    44  40  85 CALM      30.28S
LA VETA PASS   NOT AVBL
SAGUACHE       PTCLDY    50  32  50 NW8       30.33R
$$

COZ035-036-038>040-171300-
...NORTHERN COLORADO FRONT RANGE...

CITY           SKY/WX    TMP DP  RH WIND       PRES   REMARKS
DENVER INTL AP PTCLDY    56  40  55 SW14      30.08S
DMNS CITY PARK   N/A     58  42  53 SW8       30.08S
AURORA         PTCLDY    57  38  50 S10       30.11R
FRONT RANGE AP CLEAR     61  39  44 SW7       30.09S
ERIE MUNI ARPT CLEAR     48  43  84 S3        30.08R
BOULDER MUN AP CLEAR     59  37  44 NW3       30.07S
CENTENNIAL     PTCLDY    57  39  51 CALM      30.12R
BROOMFIELD     CLEAR     59  34  38 W3        30.10S
FORT COLLINS   PTCLDY    55  46  71 S5        30.08R
LONGMONT       PTCLDY    52  45  77 CALM      30.08S
$$

COZ041-046-047-076>085-087-088-171300-
...PIKES PEAK/PALMER DIVIDE AND SOUTHERN FOOTHILLS...

CITY           SKY/WX    TMP DP  RH WIND       PRES   REMARKS
COLO. SPRINGS  MOCLDY    57  37  47 N7        30.16R
A. F. ACADEMY  MOCLDY    50  37  60 N10       30.18S
ELLICOTT       NOT AVBL
FALCON         MOCLDY    52  38  58 W8        30.21R
FORT CARSON    MOCLDY    57  39  50 NW13      30.13R
LIMON          CLEAR     45  41  86 N5        30.10R
MONUMENT HILL  PTCLDY    55  34  44 SW8       30.20S
TRINIDAD       MOCLDY    59  44  57 W13       30.13R
$$

COZ042>045-048>051-090-091-171300-
...NORTHEAST COLORADO...

CITY           SKY/WX    TMP DP  RH WIND       PRES   REMARKS
GREELEY ARPT   CLEAR     46  37  71 CALM      30.06S
AKRON          CLEAR     54  42  64 NW9       30.03S
BURLINGTON     CLEAR     50  46  86 W6        30.01S
WRAY           CLEAR     52  48  87 SW7       29.99S
STERLING       CLEAR     50  46  87 W3        29.99S
HOLYOKE        CLEAR     48  45  87 W3        29.98S
FORT MORGAN    CLEAR     49  41  75 W3        30.04R
$$

COZ086-089-092>099-171300-
...SOUTHEAST COLORADO...

CITY           SKY/WX    TMP DP  RH WIND       PRES   REMARKS
PUEBLO         MOCLDY    54  41  61 W7        30.06R
LA JUNTA       PTCLDY    54  44  69 W8        30.02S
LAMAR          MOCLDY    52  50  93 W5        29.98S
SPRINGFIELD      N/A     54  50  86 W5        30.02S
$$



USA.gov is the U.S. government's official web portal to all federal, state and local government web resources and services.